Regional Weather Roundup
Issued by NWS

Home | Current Version | Previous Version | Graphics & Text | Print | Product List | Glossary On
Versions: 1 2 3 4 5 6 7 8 9 10 11 12 13 14 15 16 17 18 19 20 21 22 23 24 25 26 27 28 29 30 31 32 33 34 35 36 37 38 39 40 41 42 43 44 45 46 47 48 49 50
000
ASUS43 KLOT 271708
RWRIL

ILLINOIS REGIONAL WEATHER ROUNDUP
NATIONAL WEATHER SERVICE CHICAGO/ROMEOVILLE IL
1200 PM CDT MON MAR 27 2017

NOTE: "FAIR" INDICATES FEW OR NO CLOUDS BELOW 12,000 FEET WITH NO
SIGNIFICANT WEATHER AND/OR OBSTRUCTIONS TO VISIBILITY.

* THESE STATIONS ARE NOT UNDER NWS QUALITY CONTROL. THEY ALSO MAY NOT
  REPORT WEATHER SUCH AS PRECIPITATION OR FOG.

ILZ001-002-007-009-015-016-024-271800-
NORTHWEST ILLINOIS

CITY           SKY/WX    TMP DP  RH WIND       PRES   REMARKS
MOLINE         CLOUDY    51  45  79 E6        29.92F
STERLING*      CLOUDY    49  47  93 E7        29.94S FOG
SAVANNA*       CLOUDY    49  46  87 E8        29.94S
$$

ILZ003-004-008-010-011-017-018-271800-
NORTH CENTRAL ILLINOIS

CITY           SKY/WX    TMP DP  RH WIND       PRES   REMARKS
ROCKFORD       CLOUDY    49  43  80 SE5       29.96S
FREEPORT*      CLOUDY    46  44  93 E6        29.96S
ROCHELLE*      CLOUDY    48  45  88 CALM      29.94F
DE KALB*       CLOUDY    49  45  88 CALM      29.95S
PERU*          DRIZZLE   49  46  91 S5        29.94F
$$

ILZ005-006-012>014-019>023-271800-
NORTHEAST ILLINOIS

CITY           SKY/WX    TMP DP  RH WIND       PRES   REMARKS
CHICAGO-OHARE  CLOUDY    48  44  86 E5        29.94S FOG
CHICAGO-MIDWAY CLOUDY    46  44  93 E8        29.95F FOG
AURORA         CLOUDY    51  47  86 SE5       29.94F
LANSING*       CLOUDY    47  47  97 NE6       29.95S FOG
JOLIET*        CLOUDY    53  49  86 SE5       29.94F
WAUKEGAN       CLOUDY    43  41  93 NE8       29.95S
DUPAGE AIRPORT FOG       48  48 100 NE6       29.93F VSB 3/4
KANKAKEE*      CLOUDY    56  51  83 CALM      29.95S
WHEELING       CLOUDY    48  44  86 E6        29.95F
MORRIS*        CLOUDY    52  47  84 CALM      29.93F
ROMEOVILLE*    CLOUDY    51  49  93 CALM      29.94F
NORTHERLY ISL    N/A     41  40  96 NE3         N/A
$$

LMZ740>746-271800-
SOUTHERN LAKE MICHIGAN

STATION/POSITION SKY/WX   TEMP    WIND        PRES    VSBY  WAVE
                          AIR SEA DIR/SP/G                  HT/PER
                          (F)     (DEG/KT/KT) (MB)    (MI)  (FT/S)
HARRISON CRIB              42      90/  8/  8   N/A
BURNHAM HARBOR             41      50/  2/  6   N/A
CALUMET HARBOR             41      50/  6/  6 1014.0F
BURNS HARBOR               42      50/  8/ 11 1015.2
MICHIGAN CITY              40      30/  8/  8   N/A
$$

ILZ025>027-034>036-040-047-049-050-058-095>099-271800-
WEST-CENTRAL ILLINOIS

CITY           SKY/WX    TMP DP  RH WIND       PRES   REMARKS
QUINCY         LGT RAIN  50  48  93 E12       29.90F FOG
GALESBURG*     DRIZZLE   48  47  94 E5        29.92F
MACOMB*        LGT RAIN  49  49 100 E6        29.95S
JACKSONVILLE*  RAIN      51  50  96 NE10      29.90S
PITTSFIELD*    LGT RAIN  51  50  97 NE10      29.90F
$$

ILZ028>032-037-038-041>044-048-051>054-059>061-271800-
CENTRAL ILLINOIS

CITY           SKY/WX    TMP DP  RH WIND       PRES   REMARKS
PONTIAC        DRIZZLE   53  52  97 E5        29.95S
BLOOMINGTON    LGT RAIN  51  49  92 SE5       29.94F
DECATUR        LGT RAIN  58  50  75 E8        29.89F
PEORIA         LGT RAIN  50  49  96 E3        29.94F FOG
LACON*         DRIZZLE   49  48  95 E3        29.94F
LINCOLN*       LGT RAIN  53  52  96 NE7       29.92F
SPRINGFIELD    LGT RAIN  52  50  93 NE7       29.91F FOG
TAYLORVILLE    LGT RAIN  52  52 100 N6        29.89S
$$

ILZ033-039-045-046-055>057-062-063-271800-
EAST-CENTRAL ILLINOIS

CITY           SKY/WX    TMP DP  RH WIND       PRES   REMARKS
CHAMPAIGN      CLOUDY    63  48  58 E9        29.90F
RANTOUL*       PTSUNNY   57  53  86 E6        29.93F
MATTOON        LGT RAIN  55  50  83 SE7       29.88F
PARIS*         CLOUDY    59  50  72 E10       29.90F
$$

ILZ079-100>102-271800-
SOUTHWEST ILLINOIS

CITY           SKY/WX    TMP DP  RH WIND       PRES   REMARKS
BELLEVILLE     CLOUDY    54  54 100 NE3       29.83S
CAHOKIA*       LGT RAIN  54  51  90 N3        29.84S FOG
SPARTA*        CLOUDY    59  56  89 SW9       29.84F
$$

ILZ064>066-069>071-074>076-080>082-084>086-088>090-092>094-271800-
SOUTH-CENTRAL ILLINOIS

CITY           SKY/WX    TMP DP  RH WIND       PRES   REMARKS
CARBONDALE     LGT RAIN  62  56  80 SW12      29.83F
CAIRO*         LGT RAIN  60  57  91 S3        29.87F
EFFINGHAM*     RAIN      54  54  99 NE3       29.89F
MARION         CLOUDY    64  57  77 SW12G21   29.86F
MT. VERNON     PTSUNNY   62  57  83 S12       29.85F
CENTRALIA*     CLOUDY    60  57  91 S6        29.84S
SALEM*         CLOUDY    56  54  91 E5        29.85F FOG
METROPOLIS*    CLOUDY    65  55  69 SW12G20   29.91R THUNDER
$$

ILZ067-068-072-073-078-083-087-091-271800-
SOUTHEAST ILLINOIS

CITY           SKY/WX    TMP DP  RH WIND       PRES   REMARKS
LAWRENCEVILLE  CLOUDY    57  54  89 SE7       29.89R
FLORA*         CLOUDY    56  55  94 E7        29.88S
FAIRFIELD*     CLOUDY    63  58  86 S7        29.86S
HARRISBURG*    CLOUDY    68  56  65 SW12G20   29.86F
ROBINSON*      CLOUDY    55  51  86 SE7       29.89R
CARMI*         CLOUDY    63  58  84 S15       29.87F
$$

ABBREVIATIONS USED IN REMARKS
   TC - TEMPERATURE IN CELSIUS
  WCI - WIND CHILL INDEX
   HX - HEAT INDEX
  VSB - VISIBILITY
$$





USA.gov is the U.S. government's official web portal to all federal, state and local government web resources and services.